Location: Unspecified
(48.2082°N, 0.0000°E)
Time: 08:49:43
(UTC+00:00)

S-56A Canister/Altair - Pass Details

Date: 22 August 2020
Orbit: 633 x 2499 km, 38.9° (Epoch: 22 September)

Event Time Altitude Azimuth Distance (km) Brightness Sun altitude
Exits shadow 02:01:27 10° 130° (SE) 2,163 9.7 -24.6°
Drops below altitude 10° 02:01:37 10° 128° (SE) 2,190 9.8 -24.6°
Sets 02:06:11 0° 95° (E) 3,422 11.2 -24.2°
